Weather History for K40B - December, 2012

Change the Weather History Date:

Saturday, December 8, 2012

  Actual Average Record
Temperature  
Mean Temperature 32 °F -  
Max Temperature 37 °F 28 °F 37 °F (2012)
Min Temperature 27 °F 9 °F -17 °F (2000)
Degree Days  
Heating Degree Days 33    
Moisture  
Dew Point 24 °F    
Average Humidity 71    
Maximum Humidity 84    
Minimum Humidity 56    
Precipitation  
Precipitation 0.05 in - - ()
Sea Level Pressure  
Sea Level Pressure 29.95 in    
Wind  
Wind Speed 1 mph (East)    
Max Wind Speed 7 mph    
Max Gust Speed 15 mph    
Averages and records for this station are not official NWS values.
T = Trace of Precipitation, MM = Missing Value Source: NWS Daily Summary

Daily Weather History Graph

Daily Weather History Graph

Search for Another Location

Airport or City:

Trip Planner

Search our weather history database for the weather conditions in past years. The results will help you decide how hot, cold, wet, or windy it might be!

Date:

Astronomy

Dec. 08, 2012 Rise Set
Actual Time 7:09 AM EST 3:50 PM EST
Civil Twilight 6:35 AM EST 4:25 PM EST
Nautical Twilight 5:56 AM EST 5:03 PM EST
Astronomical Twilight 5:20 AM EST 5:40 PM EST
Moon 1:14 AM EST (12/8) 12:32 PM EST (12/8)
Length of Visible Light 9h 50m
Length of Day
8h 40m
Waning Crescent, 28% of the Moon is Illuminated
Dec 8
Waning Crescent
Dec 13
New
Dec 20
First Quarter
Dec 28
Full
Jan 4
Last Quarter

Hourly Weather History & Observations

Time (EST) Temp. Windchill Dew Point Humidity Pressure Visibility Wind Dir Wind Speed Gust Speed Precip Events Conditions
12:25 AM 29.3 °F - 22.6 °F 76% 30.04 in - Calm Calm - N/A   Unknown
1:25 AM 29.5 °F - 23.0 °F 77% 30.03 in - Calm Calm - N/A   Unknown
2:25 AM 30.2 °F - 22.5 °F 73% 30.04 in - Calm Calm - N/A   Unknown
3:25 AM 27.5 °F - 21.6 °F 78% 30.04 in - Calm Calm - N/A   Unknown
4:25 AM 28.2 °F - 23.0 °F 81% 30.04 in - Calm Calm - N/A   Unknown
5:26 AM 28.6 °F - 23.4 °F 81% 30.04 in - Calm Calm - 0.00 in   Unknown
6:25 AM 28.9 °F - 23.4 °F 80% 30.05 in - Calm Calm - N/A   Unknown
7:25 AM 28.2 °F - 23.9 °F 84% 30.06 in - Calm Calm - N/A   Unknown
8:25 AM 29.8 °F 26.3 °F 23.5 °F 77% 30.06 in - Variable 3.5 mph - 0.00 in   Unknown
9:25 AM 32.9 °F - 24.6 °F 72% 30.05 in - Calm Calm - N/A   Unknown
10:25 AM 35.4 °F 32.6 °F 23.2 °F 61% 30.03 in - Variable 3.5 mph - N/A   Unknown
11:25 AM 36.0 °F 33.3 °F 24.1 °F 62% 30.00 in - Variable 3.5 mph - N/A   Unknown
12:26 PM 36.9 °F 34.3 °F 24.1 °F 60% 29.96 in - Variable 3.5 mph - N/A   Unknown
1:25 PM 37.4 °F 33.8 °F 23.7 °F 58% 29.93 in - Variable 4.6 mph - N/A   Unknown
2:25 PM 37.4 °F 34.9 °F 23.0 °F 56% 29.93 in - Variable 3.5 mph - N/A   Unknown
3:25 PM 36.7 °F 34.1 °F 22.6 °F 57% 29.90 in - Variable 3.5 mph - N/A   Unknown
4:26 PM 35.2 °F 30.3 °F 24.3 °F 64% 29.90 in - Variable 5.8 mph - N/A   Unknown
5:25 PM 34.7 °F - 25.0 °F 68% 29.88 in - Calm Calm - N/A   Unknown
6:25 PM 33.6 °F 27.5 °F 26.6 °F 75% 29.85 in - East 6.9 mph 15.0 mph N/A   Unknown
7:26 PM 32.7 °F 29.6 °F 28.0 °F 83% 29.83 in - Variable 3.5 mph - N/A   Unknown
8:25 PM 31.8 °F - - N/A% 29.83 in - Calm Calm - 0.01 in   Unknown
9:25 PM 32.2 °F 28.9 °F - N/A% 29.81 in - Variable 3.5 mph - 0.03 in   Unknown
10:25 PM 32.9 °F - - N/A% 29.79 in - Calm Calm - N/A   Unknown
11:25 PM 33.4 °F 28.1 °F - N/A% 29.80 in - Variable 5.8 mph - 0.01 in   Unknown